Theta_e
321 322 323 324 325 325 325 326 329 330 330 330 330 330 331 332 332 332 332 331 330 331 331 331 330 330 330 330 331 331 330 323 321 316 313 318 327 337 332 333 332 334 332 327 322 319 316 317 316 321 319 315 313 314 313 312 311 313 305 303 301 303 303 303 302 302 304 304 304 305 305 307 307 308 309 312 311 311 314 313 320 322 318 324 321 328 334 334
320 321 322 322 324 325 325 326 328 329 330 330 330 331 331 332 332 332 332 331 330 331 331 331 330 330 330 330 332 331 327 323 318 315 313 328 335 333 335 332 333 336 331 323 320 317 316 315 316 318 315 312 320 310 312 308 312 308 306 304 300 304 302 305 304 304 303 302 304 305 305 305 307 308 311 307 308 309 310 311 317 315 318 322 322 327 332 333
320 321 321 322 323 324 324 325 326 328 329 329 330 330 330 330 330 331 331 331 330 331 331 331 330 330 329 330 331 329 325 319 318 312 316 336 336 337 337 334 333 333 326 321 321 320 318 316 316 316 316 312 315 311 314 307 308 307 306 302 304 304 303 304 304 303 304 303 304 304 305 303 307 307 313 306 307 308 307 307 312 313 315 319 320 326 332 331
320 320 320 321 322 324 324 324 325 327 328 329 329 330 329 329 330 330 330 330 330 331 330 330 329 329 329 330 329 329 323 317 311 316 321 333 337 337 339 337 335 331 325 323 323 322 321 320 318 316 315 312 313 315 308 306 304 306 305 303 304 305 303 303 304 304 303 304 303 304 305 304 306 307 308 307 305 306 308 310 311 313 314 319 322 325 330 329
320 320 321 321 321 323 324 324 324 325 327 329 329 329 329 329 329 330 330 330 330 329 330 330 329 329 328 329 326 326 317 306 308 317 321 332 337 339 339 336 332 326 325 324 323 322 321 318 315 315 312 309 313 311 308 307 306 306 304 304 304 305 303 304 304 304 303 303 303 304 303 303 306 305 305 306 303 304 308 311 311 311 314 321 322 324 328 328
319 320 320 320 321 322 323 325 325 325 326 328 329 329 329 329 328 329 329 330 330 330 330 329 328 328 328 327 327 323 315 297 317 316 333 334 336 339 339 335 331 326 323 322 320 320 318 317 316 312 309 309 308 305 307 308 308 302 301 303 304 304 303 305 305 304 303 305 303 302 304 304 304 304 306 306 305 308 311 311 311 313 315 325 324 326 326 327
319 319 319 320 321 322 323 324 324 324 325 326 328 328 329 328 328 328 328 328 329 330 329 329 327 327 327 325 326 319 313 315 318 326 332 335 336 336 336 332 332 326 323 319 318 318 317 315 314 310 310 309 309 307 309 308 308 305 300 302 302 305 304 306 306 305 305 306 305 306 305 302 304 302 307 305 308 309 311 311 310 316 319 326 323 326 326 327
317 318 318 319 320 321 323 323 323 324 324 324 326 328 328 328 327 327 327 328 329 329 328 328 327 327 325 323 317 311 312 313 322 331 331 334 334 334 331 329 328 325 322 317 317 316 316 313 311 314 310 308 310 308 309 306 307 304 301 302 303 305 306 308 307 308 307 307 307 306 304 304 305 304 304 304 307 309 311 311 311 317 322 323 323 324 326 327
317 318 319 318 319 320 321 323 323 323 324 324 324 328 328 328 327 327 326 327 328 328 328 328 326 326 325 322 314 308 309 322 324 331 332 331 331 331 329 324 327 323 319 319 319 318 317 314 314 314 311 309 313 309 306 305 302 307 307 305 304 306 308 309 308 309 308 308 306 306 308 307 305 304 302 304 307 309 314 311 312 316 321 321 321 323 324 326
317 318 318 318 318 318 320 322 323 323 323 323 323 326 328 327 327 326 326 327 327 328 328 327 327 326 321 318 313 304 315 329 328 332 331 330 329 328 326 325 325 321 318 319 319 319 316 316 315 317 316 312 314 308 309 307 304 307 305 306 305 307 308 309 307 308 310 308 310 306 306 306 303 302 301 308 311 312 312 310 313 314 317 319 321 323 324 326
316 317 317 318 319 319 319 321 322 323 323 323 323 324 326 327 326 325 326 325 326 327 328 327 326 324 316 317 307 303 324 326 330 329 330 330 326 324 323 324 324 321 320 319 319 321 321 319 322 320 315 311 313 309 309 308 308 306 306 306 306 309 310 310 310 310 311 308 306 307 305 308 307 301 301 306 309 308 309 310 313 313 314 318 321 323 325 325
315 317 318 318 318 318 318 320 321 321 322 322 323 324 325 326 327 326 325 325 325 327 327 327 326 324 318 312 308 309 323 327 328 328 330 327 325 325 325 324 324 322 319 317 319 322 322 323 322 316 306 315 309 312 310 308 308 307 308 303 305 309 308 311 309 310 308 307 308 307 305 305 305 299 304 307 309 311 309 310 313 312 313 317 320 323 324 325
315 316 317 317 317 317 317 319 321 321 321 322 322 323 324 325 325 326 326 325 326 326 327 327 325 323 314 305 310 324 323 327 328 329 329 327 326 326 325 326 324 322 322 321 320 323 326 323 323 313 316 312 310 305 309 312 307 308 307 306 304 304 304 310 312 307 304 308 305 306 298 302 305 306 306 310 310 309 308 310 312 312 313 317 320 322 323 325
315 316 316 317 316 316 317 318 321 321 321 321 322 323 325 325 324 325 326 325 327 327 327 327 325 320 313 307 317 321 328 330 329 328 325 325 322 322 325 325 324 323 325 323 324 326 327 325 323 317 317 312 307 312 309 308 309 304 303 305 301 300 300 307 305 303 304 303 303 306 298 301 306 307 307 307 309 309 306 308 310 312 314 316 320 321 322 324
314 316 316 316 316 316 317 318 321 321 321 321 322 323 324 324 325 326 326 326 327 328 327 327 323 314 308 311 317 325 324 331 324 324 326 322 321 322 323 324 323 324 324 326 325 326 326 323 319 313 309 310 312 307 304 306 306 307 300 297 301 299 302 303 306 303 303 299 301 302 298 300 304 306 305 308 309 308 306 307 309 311 314 316 318 320 321 322
315 315 315 316 315 316 317 319 320 321 321 321 322 322 322 323 325 326 326 326 325 325 327 320 317 313 307 304 312 327 325 319 318 324 325 325 323 318 322 322 324 324 324 323 325 324 323 321 314 312 308 309 307 304 303 303 303 305 302 300 298 300 301 302 306 303 304 301 300 299 297 298 300 304 301 302 304 308 307 307 308 311 313 314 316 318 319 321
315 315 315 315 315 315 318 319 319 320 320 321 321 321 321 322 325 326 327 324 321 323 323 315 316 316 302 314 324 316 314 319 324 323 324 325 323 322 321 320 319 319 322 322 323 322 320 315 311 310 310 306 306 305 299 297 298 300 303 300 303 299 301 299 296 299 300 301 300 300 296 297 301 304 303 302 305 306 305 305 307 309 312 314 316 317 319 320
315 315 315 316 315 316 318 319 319 319 320 320 320 321 321 322 324 323 319 320 321 321 318 319 316 309 305 314 304 309 318 317 321 322 323 324 324 322 320 317 318 318 319 316 319 315 316 309 310 304 306 305 304 302 296 292 297 298 299 299 300 302 301 299 298 296 298 299 298 300 298 298 300 302 303 305 305 305 304 305 305 307 311 313 315 316 318 320
314 313 313 313 315 315 317 319 320 320 320 320 321 322 322 322 322 320 314 315 309 303 299 303 303 294 293 304 313 316 316 320 323 320 317 320 322 322 321 321 319 314 310 309 310 312 312 308 310 304 299 301 301 302 300 301 303 301 301 301 302 299 298 297 301 301 300 299 299 299 297 299 300 301 304 305 306 304 304 305 305 306 307 310 312 313 315 318
313 313 314 315 316 317 317 318 317 318 319 317 316 317 312 306 304 303 311 311 304 303 307 306 309 310 305 310 311 318 323 322 315 316 319 321 319 317 317 316 314 314 309 304 307 309 312 302 299 299 301 302 304 304 305 305 306 305 304 304 302 302 302 303 301 301 301 300 300 301 301 299 299 301 303 304 306 304 304 303 304 306 307 308 311 312 313 315
314 314 314 314 315 317 318 319 318 318 318 317 312 309 300 301 296 293 302 304 308 308 305 306 307 303 302 308 316 315 311 312 317 314 317 323 320 315 310 312 307 304 306 308 306 310 308 300 300 304 305 306 305 306 306 305 306 304 304 303 302 303 301 303 301 300 300 299 300 303 302 301 301 301 302 304 304 302 302 303 303 304 306 308 310 311 314 315
312 313 314 313 315 316 317 319 319 318 318 317 312 308 309 308 310 316 308 297 305 307 307 306 308 304 308 308 317 318 316 308 309 314 320 319 315 309 309 309 304 301 306 307 306 302 300 298 302 306 308 308 307 307 307 305 304 304 303 302 301 302 304 304 301 300 299 298 298 301 299 300 301 302 304 303 303 304 304 304 304 304 305 306 308 310 312 315
313 313 313 313 315 317 318 317 317 318 315 311 309 309 308 315 317 317 310 305 301 306 304 304 301 302 303 307 314 319 308 304 302 310 313 317 310 309 308 305 303 304 304 305 298 297 294 299 305 308 308 307 306 306 305 304 305 303 302 300 298 303 300 297 301 299 298 299 298 299 296 297 300 302 304 305 304 304 305 305 305 305 305 305 307 309 310 313
313 313 313 313 315 315 318 317 315 316 314 312 310 309 315 318 314 311 304 295 293 298 302 304 304 303 301 300 315 314 308 306 307 306 317 314 307 311 308 306 303 303 301 303 302 299 298 303 308 307 307 305 303 304 304 302 300 303 303 302 301 301 302 301 298 297 298 298 299 297 295 296 299 299 301 305 308 307 306 306 305 306 307 308 310 311 311 310
312 312 312 313 313 315 315 316 310 310 315 312 310 315 318 317 315 313 302 298 296 293 306 304 307 305 305 314 313 308 309 309 309 313 315 314 308 309 306 310 305 300 302 304 303 301 301 305 308 306 305 304 303 302 303 303 299 300 303 303 303 304 302 301 300 298 298 297 297 294 290 293 300 300 301 304 306 306 308 306 305 305 305 306 306 307 311 313
311 311 312 313 313 312 314 305 304 311 310 308 311 316 318 317 318 311 302 287 283 290 300 290 306 298 312 303 310 310 311 302 312 314 316 315 315 310 308 304 306 298 302 302 301 302 302 307 306 304 303 303 303 302 304 304 300 298 300 304 304 304 303 301 299 297 293 292 296 297 290 289 299 299 301 304 305 306 309 308 305 305 305 305 306 307 308 309
311 312 313 313 312 313 305 300 309 310 304 306 314 317 316 316 315 308 295 283 282 293 287 299 299 301 308 308 309 311 293 297 314 315 313 316 310 317 304 302 304 306 307 306 303 297 304 304 304 305 303 302 301 299 304 304 301 297 305 304 304 303 302 301 300 298 296 301 299 295 294 288 289 296 301 303 302 304 307 307 304 305 305 305 306 307 307 308
311 312 312 313 311 310 304 308 306 303 305 310 316 316 314 313 313 306 292 276 274 297 288 296 300 314 309 311 312 304 304 308 300 306 313 316 316 310 306 302 301 302 305 303 290 303 303 301 303 301 302 301 299 303 305 305 301 302 303 305 302 303 302 302 300 298 296 293 290 296 297 288 288 295 300 302 299 301 302 305 307 305 306 306 306 307 308 308
310 311 312 311 311 311 310 306 304 302 310 314 316 317 312 310 308 295 283 275 294 290 311 295 316 307 305 310 305 306 304 307 300 306 313 314 312 309 303 304 305 305 306 304 297 299 304 304 305 305 302 299 304 305 305 305 301 302 305 306 305 304 303 302 299 296 292 289 287 293 297 288 289 296 298 299 298 299 301 303 305 306 305 306 306 306 307 308
310 311 311 311 311 310 309 307 307 313 314 315 316 314 311 307 298 285 280 273 296 283 297 298 300 295 303 299 300 303 300 304 307 307 310 307 307 309 308 313 306 303 301 304 303 302 302 307 310 307 303 305 305 306 307 305 306 305 305 302 301 301 298 297 297 292 289 285 288 293 296 293 286 295 297 298 298 299 301 304 306 308 308 306 306 307 307 306
310 310 310 311 306 308 308 302 308 314 314 314 314 310 305 299 285 280 274 283 294 290 300 297 293 304 297 296 294 301 301 302 301 304 298 304 301 305 307 304 309 301 297 297 296 299 301 304 305 306 306 308 308 304 305 306 304 303 299 297 295 292 294 292 290 292 285 285 289 295 296 295 285 292 299 302 305 303 302 302 304 306 307 308 306 306 307 307
309 309 309 308 309 310 302 301 309 315 316 314 310 303 296 281 286 277 277 297 282 288 289 291 298 298 297 299 298 297 296 298 301 300 296 298 296 297 299 294 298 287 287 290 289 298 296 299 302 301 304 306 304 300 297 298 300 299 297 296 289 285 286 283 285 281 283 284 287 289 294 290 289 294 299 302 302 303 304 304 304 305 306 308 307 307 308 309
308 308 309 310 309 307 307 311 313 313 313 313 304 300 288 281 274 282 284 285 284 293 289 297 294 297 297 295 294 298 301 294 301 300 301 300 298 299 303 301 301 296 286 293 291 291 292 299 299 300 301 306 304 296 291 290 294 294 293 291 289 283 282 281 283 286 286 288 289 290 292 288 294 297 301 300 303 305 305 304 306 306 306 307 308 311 308 313
308 309 307 308 308 309 311 312 312 312 309 307 301 292 287 278 278 290 285 286 286 295 297 293 296 297 296 291 294 298 293 299 299 298 300 296 298 295 298 302 302 299 298 294 289 290 284 285 292 297 294 304 304 302 298 295 292 293 298 296 291 289 285 282 284 281 284 287 288 293 289 288 290 293 297 299 299 299 301 303 305 306 306 306 306 306 305 304
308 308 309 308 308 309 312 312 311 310 308 303 293 287 278 278 286 282 285 286 288 294 291 297 293 293 291 294 296 298 297 292 299 298 297 295 293 295 295 296 301 303 299 291 292 292 290 290 296 300 300 303 301 305 301 295 293 295 299 300 294 290 297 288 289 289 288 286 284 285 288 295 296 301 301 301 301 299 300 300 301 301 302 304 304 304 303 303
305 304 308 304 305 307 310 312 310 307 305 298 287 282 279 284 281 289 286 295 292 288 291 294 293 288 287 288 294 294 300 293 297 297 295 296 298 296 300 299 299 301 297 292 294 289 293 287 296 298 301 302 303 300 298 300 286 292 293 289 293 300 298 291 287 289 288 288 286 290 288 293 299 300 302 303 303 301 299 299 299 301 302 304 304 305 305 306
300 303 299 302 304 308 309 311 311 305 303 296 286 280 286 285 291 292 295 292 291 294 292 284 285 286 285 285 286 290 294 297 296 295 289 298 295 299 298 300 305 303 303 300 294 300 291 288 293 295 294 301 302 301 300 303 303 295 288 293 301 301 300 293 287 286 286 284 286 290 287 290 291 288 301 302 301 303 301 298 299 300 302 302 304 305 307 311
299 299 299 301 304 308 309 310 309 303 297 292 285 286 291 285 292 293 294 296 296 296 290 287 287 291 286 287 285 287 293 291 291 294 288 295 290 303 299 299 304 304 305 305 298 297 296 284 289 290 297 297 299 300 298 300 300 296 294 304 294 288 287 293 289 283 283 282 285 289 290 290 292 292 296 296 298 299 301 301 299 299 300 302 303 304 306 310
298 296 292 299 306 308 309 309 305 299 292 286 284 284 287 288 294 293 296 296 297 295 290 291 286 287 290 287 288 289 291 287 293 290 288 292 289 300 299 302 300 305 305 305 298 298 299 286 287 291 292 295 297 297 287 292 297 298 301 298 302 297 293 289 289 289 289 284 284 285 289 287 296 295 298 298 300 300 301 302 301 301 301 302 303 305 305 306
296 293 291 302 305 308 309 307 299 295 290 282 285 285 292 287 292 295 296 296 291 293 291 291 291 287 288 288 290 286 290 292 292 290 292 294 294 303 300 304 301 302 305 305 301 302 295 297 283 288 293 295 288 294 291 293 289 290 293 292 295 295 296 296 295 290 288 285 286 285 285 290 297 301 300 300 301 302 302 302 303 303 304 303 302 303 305 304
298 293 292 303 305 308 307 301 293 288 287 289 290 287 288 287 292 293 296 298 296 298 294 293 292 289 289 287 286 292 288 290 292 290 293 294 296 290 302 302 304 300 304 303 300 300 291 293 285 286 287 287 291 297 298 297 295 293 292 291 293 291 288 286 285 295 290 289 285 286 284 291 297 300 301 301 303 303 304 304 304 305 302 302 303 306 304 304
293 286 290 304 306 307 299 289 289 293 289 286 285 288 287 295 292 293 294 297 294 293 296 294 295 293 292 291 292 289 288 288 291 291 293 292 298 299 302 306 304 304 299 295 297 301 298 294 289 284 287 289 290 292 294 296 299 297 296 294 296 295 294 289 284 287 289 291 293 288 285 288 299 298 301 301 302 302 301 302 301 302 302 302 304 303 303 304
293 290 300 304 306 303 294 288 290 289 287 290 295 293 296 293 293 294 291 294 290 294 291 291 291 291 293 293 292 290 291 287 291 291 295 296 298 300 304 305 305 303 302 298 297 296 296 289 287 287 289 291 292 294 295 296 296 295 295 298 296 293 294 293 292 293 289 289 287 288 285 290 297 299 300 300 300 299 299 299 300 300 300 301 302 303 302 303
292 291 294 303 306 303 292 283 283 285 287 291 291 290 295 293 292 291 290 292 290 291 289 289 293 295 292 296 294 290 293 286 292 293 293 297 296 298 304 304 306 301 300 296 295 298 292 290 289 282 282 284 287 291 291 295 294 293 292 295 297 298 298 296 289 290 287 289 289 287 283 289 297 300 298 293 296 297 297 298 299 299 300 302 301 301 301 302
292 294 294 297 302 299 288 290 288 286 286 287 287 285 288 290 294 294 293 291 294 293 292 290 292 296 294 297 294 295 295 292 288 294 292 293 295 297 303 305 304 301 302 304 299 303 294 291 288 281 277 276 276 277 280 284 287 292 295 295 296 296 295 291 287 289 285 289 291 287 288 295 297 296 294 296 296 297 299 299 299 300 300 300 302 303 303 303
288 281 289 292 294 293 293 296 293 290 288 287 285 286 288 286 292 295 295 293 294 295 293 294 295 295 292 293 291 291 291 293 290 288 291 289 291 294 302 303 302 302 299 298 299 302 292 294 292 289 286 284 286 288 293 293 291 287 290 293 294 296 297 295 292 289 286 289 288 290 292 294 294 294 295 296 297 297 298 298 298 299 299 300 301 302 304 304
292 286 285 282 290 291 289 292 290 290 287 290 284 287 284 286 290 291 296 289 294 294 293 293 292 289 289 290 289 289 292 289 290 290 290 292 292 295 301 303 302 300 295 297 299 297 291 289 292 293 292 292 293 292 293 294 290 291 290 290 293 291 292 290 289 288 294 289 286 293 295 292 294 297 297 297 298 299 300 299 298 299 300 302 304 303 299 301
283 288 291 292 286 283 283 286 290 289 291 291 287 290 286 285 287 286 292 293 296 296 290 292 292 292 292 290 291 286 289 287 288 286 288 289 291 295 297 300 300 295 297 299 301 297 292 288 293 294 292 295 295 294 295 294 293 291 291 291 290 292 291 288 289 293 294 289 288 294 296 293 296 298 300 299 299 300 300 299 299 299 300 301 301 301 303 303
291 292 291 295 287 290 288 289 291 290 289 289 288 289 286 286 285 289 289 289 292 292 292 286 288 291 291 293 291 288 289 285 284 288 287 288 291 292 291 294 297 297 299 294 297 298 295 290 292 293 290 293 294 294 295 293 293 292 291 292 292 292 291 292 292 294 294 293 295 295 297 297 299 300 301 302 303 302 300 299 299 298 299 302 302 301 302 302
285 286 285 292 292 290 291 290 290 289 287 289 285 287 288 287 286 289 292 290 286 289 294 288 290 292 292 292 291 288 290 293 292 287 291 291 290 294 292 293 292 295 298 294 295 298 295 289 294 292 288 287 292 294 295 294 293 291 292 292 292 292 292 293 293 294 294 294 295 295 295 295 300 303 303 304 304 303 299 297 297 299 300 300 301 301 302 303
294 293 294 288 285 287 289 289 287 287 286 287 286 287 288 288 287 290 290 294 290 288 291 289 291 293 294 293 292 291 295 295 297 295 294 294 290 296 293 293 297 292 295 294 295 295 295 291 295 292 287 285 290 292 292 294 293 291 290 291 292 291 289 291 290 294 293 291 293 293 291 293 299 302 303 303 303 302 301 301 301 302 301 300 300 301 302 303
294 296 295 290 283 287 285 288 288 287 283 287 288 288 288 288 290 291 287 294 294 295 294 293 292 292 292 292 291 293 296 298 299 300 297 299 299 300 299 299 298 295 293 294 297 292 293 292 289 289 286 285 289 292 291 290 288 285 287 291 293 293 294 295 295 296 296 296 292 289 291 297 300 301 300 300 301 301 301 301 302 303 304 304 304 304 303 304
Wind_Speed
21 22 21 20 20 20 20 21 19 18 17 17 18 17 16 17 18 18 18 17 19 16 19 16 14 14 13 12 11 11 11 9 10 11 12 11 6 6 12 12 11 8 8 6 11 12 13 10 9 8 6 5 2 2 4 5 2 3 7 6 9 8 7 5 5 6 2 3 6 6 3 3 3 5 3 2 5 6 3 6 5 1 4 3 5 3 12 14
23 23 23 22 20 20 20 20 19 18 17 18 17 16 16 17 18 18 18 20 22 19 16 18 16 15 14 13 12 13 12 12 13 13 18 7 8 11 8 13 11 10 8 10 14 15 13 13 11 10 8 4 2 2 3 1 2 6 7 8 9 2 6 3 5 7 5 6 6 3 4 3 3 4 4 5 6 8 7 8 7 8 8 5 5 7 13 14
24 24 24 24 22 21 20 20 20 20 19 17 17 16 16 16 18 18 18 20 21 19 20 17 16 15 14 13 13 15 13 12 11 18 18 8 12 8 9 10 12 10 10 12 12 12 12 11 8 10 5 7 2 3 1 2 4 1 5 7 6 6 7 7 5 7 6 5 5 5 3 2 2 3 4 5 7 6 10 7 9 10 11 10 9 10 14 13
24 25 25 25 24 22 21 20 20 20 19 18 17 17 16 17 17 17 17 19 18 17 17 19 17 15 14 14 14 14 13 8 15 15 15 9 8 11 9 9 12 11 10 9 11 7 9 13 9 12 4 7 3 2 4 2 3 2 3 7 5 5 7 5 4 6 4 5 5 5 4 4 1 3 4 4 7 9 10 10 8 10 11 12 11 13 14 13
25 25 25 25 25 23 22 21 20 20 21 19 18 18 17 17 17 17 17 18 19 18 17 19 19 18 16 14 17 15 13 7 12 14 14 14 11 10 9 10 10 12 9 8 8 10 9 11 11 11 9 5 2 2 3 1 3 3 3 7 7 3 5 5 4 3 4 0 4 4 5 5 3 5 7 8 8 5 5 8 3 4 6 14 14 14 14 14
24 25 26 26 25 25 23 21 20 21 22 20 17 17 17 17 17 17 17 18 19 21 21 20 19 19 19 19 15 16 15 14 6 17 19 19 17 12 10 11 12 12 13 11 11 9 12 11 9 9 9 9 8 7 3 1 5 3 2 3 4 3 5 3 4 4 3 5 5 6 6 7 6 6 7 8 10 6 5 2 5 4 1 14 14 14 14 15
24 25 26 25 24 25 24 21 21 21 22 22 18 17 17 16 15 16 15 19 20 21 20 21 21 18 18 17 14 18 20 9 2 12 27 22 19 16 13 13 11 13 14 14 16 12 14 13 13 10 10 11 13 11 3 1 2 7 4 6 4 2 3 2 3 1 1 5 6 5 5 7 7 9 2 7 9 11 2 3 3 2 2 12 14 15 16 17
25 25 25 24 23 24 23 21 21 21 21 22 20 18 18 17 16 16 15 16 20 19 20 20 19 20 14 8 14 18 18 16 7 14 23 21 18 16 14 11 14 14 15 18 16 15 14 15 15 10 9 11 9 15 7 4 3 7 3 6 4 1 1 1 1 4 3 4 3 4 8 9 8 7 6 11 12 10 6 5 4 4 6 10 12 14 14 15
25 23 23 24 24 23 24 22 21 21 20 21 21 18 18 18 17 16 18 17 19 18 22 24 23 19 19 11 17 17 21 12 9 16 18 17 14 13 15 11 15 16 16 16 16 15 13 13 14 12 7 11 6 13 7 6 6 9 4 7 3 3 1 3 5 7 3 4 2 8 11 10 2 4 11 16 14 9 4 4 5 6 8 10 11 13 13 14
24 24 22 23 23 26 24 23 21 21 22 23 23 20 18 19 19 17 16 18 15 19 19 21 23 22 14 9 13 19 13 11 11 17 19 19 17 15 17 15 17 17 16 17 15 16 16 11 13 10 11 8 8 5 8 10 3 2 3 1 1 4 4 3 6 7 7 7 8 9 9 9 3 2 6 4 4 5 5 6 7 8 9 10 10 11 11 13
28 27 24 26 26 25 26 23 21 21 21 24 24 23 21 20 20 20 17 16 16 18 21 24 23 21 15 11 15 20 5 11 9 15 21 21 21 19 20 18 19 17 18 16 16 16 13 8 9 5 6 5 10 6 8 4 5 4 2 2 5 7 9 8 10 10 6 6 3 6 11 12 7 5 12 4 4 4 6 7 8 9 9 9 10 10 10 11
29 28 25 24 22 23 27 23 20 20 22 24 24 24 22 20 18 17 17 19 20 19 20 18 28 14 12 14 14 11 5 3 12 14 15 19 18 19 19 18 18 18 18 17 16 14 14 7 12 8 5 6 6 7 6 5 4 2 2 5 7 8 10 11 9 9 1 7 1 3 12 15 11 10 12 10 6 5 6 8 8 9 9 9 10 10 10 10
28 26 26 25 24 25 28 25 21 21 22 24 24 23 22 21 20 18 18 16 18 19 21 25 19 13 13 14 17 2 4 3 14 16 14 14 14 16 15 15 18 16 17 14 16 8 8 8 6 14 3 7 6 4 5 6 4 3 2 5 7 8 13 15 11 3 1 7 4 1 10 10 11 17 13 8 7 6 7 7 8 7 8 8 9 9 9 10
27 26 28 25 24 27 27 25 22 22 22 23 24 21 20 21 21 20 20 17 16 18 18 26 19 14 16 9 5 2 2 7 14 17 18 16 20 16 13 15 16 15 13 14 9 7 6 6 7 3 4 4 5 4 8 5 4 7 3 0 7 8 10 4 4 2 6 2 5 6 11 11 10 3 8 6 6 8 7 8 8 8 8 8 8 9 9 11
28 24 24 25 26 28 28 28 24 23 24 24 23 21 18 19 21 21 20 17 15 17 18 19 14 13 12 6 4 4 3 7 17 17 18 22 19 16 15 13 15 15 14 9 8 8 7 10 8 5 1 4 9 6 4 5 5 5 4 7 7 9 8 6 4 4 8 4 4 7 11 12 10 6 8 3 4 6 8 7 9 9 8 9 9 9 9 10
28 26 26 25 26 29 27 24 26 25 24 24 23 20 17 16 19 21 21 14 8 11 14 15 9 8 9 11 5 9 4 14 20 18 15 20 20 19 18 16 11 10 11 7 6 6 7 9 4 3 5 1 8 6 4 5 7 8 11 7 9 9 8 3 6 2 4 2 7 11 8 2 4 4 4 3 3 5 6 8 8 9 9 9 8 8 9 9
28 27 26 28 27 30 25 24 23 23 24 24 21 18 16 15 18 19 19 17 8 3 11 6 16 12 10 2 9 15 12 14 15 17 16 17 19 19 20 16 13 12 11 9 9 10 8 8 2 4 1 5 7 7 8 10 10 10 10 10 8 11 9 9 5 2 0 6 8 12 10 11 10 10 3 5 5 4 6 8 8 7 7 8 7 8 9 10
27 26 27 24 30 27 24 23 23 23 24 22 22 18 14 16 21 18 10 8 6 4 3 4 10 11 5 9 18 17 16 16 18 17 18 17 18 20 19 17 13 15 14 12 11 13 9 6 6 8 5 7 9 8 11 11 12 10 10 10 10 10 9 6 5 4 3 3 9 9 14 15 12 11 15 12 6 6 8 7 8 8 8 8 8 8 10 10
25 23 22 21 23 23 23 22 23 24 22 21 17 17 16 16 8 1 8 9 8 7 7 7 11 12 1 14 14 19 16 15 16 20 20 20 19 17 15 12 18 20 14 13 8 12 5 6 5 8 14 13 14 14 13 9 11 12 12 11 10 10 8 8 6 4 3 6 8 11 12 12 11 13 14 14 10 10 10 10 10 9 8 9 9 9 10 10
26 28 27 24 23 22 22 22 21 22 21 15 10 9 8 9 8 7 7 8 13 8 2 5 4 4 9 7 17 14 15 18 16 17 19 20 19 21 16 16 13 16 17 17 13 12 9 15 15 17 16 14 15 17 17 16 9 11 13 12 13 11 8 6 5 5 3 5 12 14 16 15 15 13 12 12 9 8 9 10 11 10 10 9 10 10 11 12
25 23 24 25 23 20 20 22 23 22 23 17 12 9 13 14 12 10 10 5 7 12 9 6 1 5 2 8 10 22 21 10 7 21 22 19 21 22 13 15 13 13 15 17 16 9 9 16 18 16 18 19 18 17 17 14 10 13 13 14 12 11 11 6 6 8 4 5 7 10 14 17 14 14 13 12 12 12 12 12 13 13 12 11 12 12 12 11
25 25 23 22 21 21 21 21 24 24 20 14 12 8 7 14 3 4 10 9 12 10 10 8 7 10 7 8 9 12 13 16 11 11 13 25 18 18 16 18 21 17 15 14 11 11 10 16 16 19 18 17 17 18 17 16 14 13 12 10 10 10 9 5 2 8 5 5 10 11 14 16 16 16 15 14 14 13 12 12 13 12 12 11 11 12 11 9
25 23 20 21 21 19 19 18 20 23 15 14 13 9 2 3 6 4 6 5 3 6 10 6 10 12 11 15 9 10 18 19 21 17 14 13 23 18 25 19 20 17 16 14 16 12 14 15 15 17 17 18 17 17 17 14 12 12 11 9 10 8 8 5 9 8 7 6 4 6 10 12 15 16 18 17 16 14 14 14 14 12 13 12 13 11 10 11
25 23 21 22 22 21 20 21 20 14 13 16 17 10 6 1 8 10 10 4 4 2 3 7 9 8 12 13 4 13 22 12 21 23 13 16 21 19 18 26 25 18 15 19 18 16 7 5 16 15 16 18 18 17 16 13 12 12 12 11 10 10 9 9 3 6 6 10 9 11 13 14 15 16 15 16 19 19 18 16 15 14 12 12 9 9 10 12
21 19 20 20 17 18 18 18 11 9 10 15 13 9 6 2 5 9 10 3 2 2 3 3 4 6 12 7 11 15 12 4 16 17 16 22 26 20 19 17 17 18 21 22 17 13 9 10 16 18 15 14 16 16 18 15 13 10 10 10 11 10 10 7 4 2 5 7 9 9 6 8 9 18 18 12 13 20 19 18 18 15 14 12 13 13 11 10
22 21 21 19 19 19 17 11 8 12 14 10 9 9 7 3 3 9 7 2 6 4 7 10 7 9 6 10 7 12 15 14 12 13 11 15 14 16 16 17 14 21 22 23 17 6 10 14 19 18 16 14 17 16 17 16 13 12 8 12 11 11 8 6 5 1 5 6 3 4 9 9 5 9 6 8 14 19 17 19 17 14 13 12 11 12 12 12
20 21 18 18 18 16 9 6 10 11 12 9 10 9 8 3 4 6 6 2 7 8 8 6 8 2 7 4 14 15 18 10 10 11 17 14 16 6 16 14 13 8 13 9 7 9 10 16 17 16 17 16 15 16 16 15 11 11 5 10 12 11 9 7 6 6 7 7 5 8 7 10 11 11 11 11 9 11 17 18 16 15 15 14 13 13 12 12
19 18 17 17 14 7 1 9 12 11 11 11 12 11 11 3 3 4 4 6 6 11 7 11 6 3 4 5 12 12 3 26 15 15 14 12 9 12 12 17 19 22 18 12 13 7 21 15 18 19 17 14 17 16 12 15 12 4 7 6 9 9 9 6 7 9 4 6 8 7 8 6 10 5 3 8 12 13 14 15 14 14 15 15 15 13 13 14
18 15 14 15 9 1 5 8 10 10 8 13 11 10 10 7 3 10 4 4 3 3 3 8 2 5 5 10 14 10 6 17 13 18 18 6 3 3 13 17 14 18 19 19 12 4 9 17 17 19 14 12 13 13 11 15 14 5 4 4 4 7 4 7 7 6 1 3 11 8 7 7 14 7 9 7 11 13 13 13 15 14 14 15 13 13 13 12
15 14 13 13 8 4 6 8 6 7 11 13 12 13 15 7 5 9 8 9 5 4 7 4 10 9 10 15 13 14 8 7 1 13 15 9 9 3 3 12 15 15 12 9 3 8 4 4 16 11 14 13 13 13 13 17 10 11 9 8 6 4 3 1 3 1 1 9 11 8 10 8 11 5 9 8 8 9 9 9 11 14 14 14 14 13 12 10
14 13 12 9 7 6 8 9 8 8 12 13 15 15 12 3 3 5 8 1 6 2 7 11 11 14 19 20 12 15 9 6 14 18 10 6 7 2 11 11 8 8 8 8 7 6 8 7 10 3 6 8 13 9 3 7 13 13 6 9 8 4 2 2 2 3 5 8 3 6 10 10 11 2 4 8 7 6 8 11 11 12 14 12 11 12 12 11
14 13 12 7 7 5 7 10 11 9 12 17 18 13 11 8 4 6 5 6 3 7 8 9 11 12 19 16 10 16 14 2 12 19 15 14 13 12 16 11 12 8 9 14 6 8 8 10 5 7 3 15 13 12 3 6 8 8 10 11 9 5 3 4 4 6 11 7 1 1 5 7 21 14 12 10 6 6 9 9 10 11 12 13 11 12 9 10
13 11 5 6 6 6 7 10 8 7 5 8 12 11 9 6 7 6 1 0 2 6 6 7 14 15 17 17 13 14 13 14 14 18 18 17 18 17 19 17 21 14 16 16 13 11 5 4 7 8 4 13 17 13 8 6 9 11 14 12 11 9 8 8 7 3 4 4 8 4 4 10 12 9 14 18 17 15 13 13 12 12 12 9 6 4 5 3
13 11 7 4 5 5 7 7 7 10 10 2 8 9 6 8 4 7 5 2 0 2 7 11 13 13 18 15 12 11 11 8 18 17 22 14 18 16 17 14 17 14 8 15 10 9 10 8 10 16 9 14 20 17 17 10 14 10 8 11 8 5 4 8 6 8 8 4 7 8 4 6 1 2 7 4 4 3 5 8 11 8 5 6 5 4 4 4
12 9 8 5 5 7 8 8 9 12 10 7 8 8 11 6 1 3 2 3 1 5 5 6 14 15 13 12 9 15 6 7 14 16 18 20 19 15 17 14 17 10 12 14 6 4 11 2 6 12 3 17 18 11 10 14 7 5 2 5 9 10 4 7 1 5 6 3 4 6 7 3 4 6 4 6 6 7 7 10 9 10 9 6 6 6 6 6
10 7 6 7 7 7 8 7 10 11 8 9 9 9 12 6 3 1 2 7 3 3 8 8 9 10 7 8 6 15 5 1 16 14 12 18 18 19 17 16 18 21 19 14 12 8 11 8 12 9 8 18 19 12 12 17 10 8 4 8 3 5 7 4 1 3 3 2 10 5 6 10 10 15 15 16 14 11 9 8 9 12 13 11 8 8 7 5
8 8 6 6 7 8 7 8 8 12 7 7 8 9 9 0 2 4 2 7 5 8 10 11 7 6 9 9 6 11 6 5 14 11 10 13 14 14 15 12 11 20 19 14 9 2 14 9 3 4 13 12 2 16 16 17 7 10 8 9 5 3 6 5 8 3 3 9 7 8 13 8 5 8 2 10 13 13 9 9 8 9 9 10 11 11 7 6
7 6 7 7 7 8 9 9 11 11 9 6 6 9 4 1 3 3 2 3 10 9 4 3 2 3 8 9 9 11 6 10 12 13 5 15 3 15 17 16 20 17 20 14 12 10 14 8 1 4 7 3 0 8 12 2 5 10 10 9 10 7 9 8 1 10 9 9 6 9 11 11 11 11 1 3 7 6 7 9 9 9 9 9 9 9 7 1
7 7 6 6 8 9 9 10 11 10 11 10 10 10 2 2 5 3 2 1 4 7 7 5 2 2 1 6 3 9 11 10 15 10 9 9 6 14 19 13 18 20 22 19 10 12 8 7 4 3 1 4 3 8 12 9 0 3 1 11 10 4 9 9 9 2 2 7 4 4 7 10 9 13 13 15 9 8 8 7 10 11 11 9 7 3 2 2
6 5 4 5 9 10 10 10 10 10 10 13 10 6 6 6 4 6 5 3 2 3 5 4 1 4 3 1 8 7 8 9 14 10 10 9 7 14 18 15 15 19 21 19 10 16 9 5 8 4 1 6 8 7 12 15 12 8 9 11 10 5 4 4 4 7 4 4 6 8 9 9 7 9 9 12 13 11 12 11 6 7 4 2 1 2 2 2
0 3 5 6 9 9 9 9 10 12 11 9 8 6 3 3 6 7 9 8 2 6 4 2 5 6 5 5 4 2 5 7 9 9 11 10 12 11 14 15 15 20 20 20 11 14 5 8 11 8 5 8 2 5 6 13 10 10 11 12 13 10 6 8 8 5 5 6 7 5 12 7 4 4 7 8 7 9 11 10 9 6 1 1 1 1 1 2
4 7 5 8 11 12 11 11 9 8 7 8 8 6 3 5 7 10 9 7 4 2 4 4 1 4 5 6 3 8 5 4 8 11 9 11 15 7 16 22 18 19 17 14 15 4 6 6 13 10 7 8 3 1 5 6 7 10 9 9 9 9 8 6 10 8 5 9 6 4 6 8 9 5 6 4 5 5 1 2 6 5 3 3 1 1 2 3
4 7 6 8 12 14 12 9 7 10 9 7 1 2 6 5 4 7 9 7 7 4 1 1 3 5 6 6 4 5 7 4 9 12 12 14 15 8 11 26 21 22 16 8 15 2 13 5 12 8 5 4 5 4 4 3 2 9 9 10 13 15 16 13 6 0 7 6 7 7 10 7 9 6 5 4 4 3 1 4 6 5 1 1 2 3 3 3
8 8 5 5 10 12 11 9 11 11 10 5 5 5 6 5 7 9 8 9 8 6 5 4 4 6 3 5 4 8 11 2 8 10 7 9 7 4 18 24 29 16 16 12 14 13 9 6 12 9 6 2 2 2 3 2 3 9 12 15 17 14 14 6 2 0 3 7 9 8 13 12 7 6 4 2 2 3 6 6 3 3 2 1 2 2 3 3
8 4 5 5 8 9 10 7 8 9 7 9 5 6 7 5 6 11 12 11 9 7 6 6 7 2 3 4 8 5 10 6 1 9 3 1 4 5 13 26 27 18 6 9 7 7 2 10 12 14 15 13 11 12 16 16 21 13 14 15 15 19 20 8 7 4 8 5 10 9 12 13 1 1 4 5 6 8 7 4 1 3 4 4 3 4 3 2
5 5 4 4 4 6 8 8 6 6 7 9 8 6 8 6 4 10 12 10 11 8 8 4 6 5 5 5 8 9 10 6 2 1 5 2 2 3 10 25 22 15 9 14 16 9 4 10 7 9 14 11 2 2 8 12 9 6 11 14 14 9 12 10 3 8 13 7 9 11 16 17 6 6 8 7 8 10 9 4 5 5 4 4 4 4 2 1
2 2 7 7 2 5 8 9 8 9 10 10 8 8 11 15 7 6 13 8 12 9 5 6 5 6 4 6 7 9 10 8 4 3 8 8 3 1 5 19 18 10 14 12 16 7 4 7 10 16 15 12 9 12 15 17 15 13 13 12 10 13 10 8 11 16 16 9 14 16 23 19 21 11 5 10 11 10 5 5 5 4 4 4 4 3 3 3
3 2 5 8 7 9 9 10 13 13 13 12 9 8 14 15 12 7 10 12 8 12 7 4 8 9 8 9 5 6 9 6 8 7 3 1 3 5 9 12 13 10 14 6 13 10 10 11 12 11 11 8 13 13 16 16 18 18 23 21 19 19 19 16 17 21 19 15 18 20 16 19 25 15 13 9 8 9 8 7 4 2 2 1 2 3 3 3
3 2 2 6 7 8 15 14 14 14 14 14 9 10 11 13 16 14 9 11 10 11 14 6 12 15 13 10 7 6 10 7 6 4 8 7 11 11 8 6 2 4 10 3 4 4 6 6 12 11 8 6 10 14 15 17 14 13 17 19 20 20 22 24 23 23 22 17 21 19 12 20 19 9 10 13 11 9 4 5 3 2 3 2 2 4 5 5
4 4 3 3 7 5 9 11 11 13 13 14 11 13 12 13 17 13 8 12 8 11 14 17 14 16 15 14 13 12 14 16 16 16 13 18 12 12 14 16 12 9 15 15 10 11 11 7 12 9 7 3 4 11 13 15 16 16 18 20 21 20 21 24 25 24 19 20 24 23 16 17 18 7 7 7 7 7 5 2 5 7 6 7 8 9 8 7
1 1 4 3 7 8 7 7 9 11 11 12 13 14 11 15 17 16 13 14 17 13 16 21 20 14 15 16 17 22 17 14 10 9 16 21 16 20 16 10 14 16 14 9 10 4 9 5 14 11 8 3 4 10 13 12 10 10 13 17 20 22 22 25 22 19 14 20 24 18 12 17 15 7 9 10 10 11 11 9 8 7 9 10 11 12 12 9
3 2 2 2 3 4 7 8 8 7 11 12 13 16 12 19 19 16 12 10 15 13 19 24 20 13 12 15 22 24 17 13 12 4 12 7 10 0 6 3 19 21 16 17 14 11 12 7 11 13 12 6 8 10 12 6 5 6 12 20 28 29 25 17 16 14 21 22 13 13 19 22 2 4 6 5 8 11 11 11 13 15 13 11 11 11 10 11
Wind_Direction
230 230 228 224 222 226 229 230 222 217 213 215 221 219 216 214 210 203 206 203 210 226 187 184 181 184 194 193 183 178 157 185 188 193 208 226 218 146 139 118 155 153 178 187 186 157 169 184 151 148 120 124 301 67 343 284 311 231 213 226 238 237 224 57 38 24 340 352 28 46 9 273 239 155 144 198 225 245 139 209 161 62 200 76 105 146 137 144
232 230 229 227 221 221 227 228 223 216 212 212 213 215 216 211 207 205 201 206 208 212 201 181 184 183 188 186 176 167 177 199 197 206 211 142 144 153 142 151 153 173 180 200 184 187 175 189 167 145 133 102 291 69 21 293 295 214 214 221 238 285 61 45 54 45 6 27 357 10 46 303 318 354 139 245 220 203 212 219 196 204 196 150 147 163 146 152
231 230 229 227 223 220 224 225 227 220 216 210 209 210 214 212 209 206 199 204 207 199 201 195 182 181 182 180 173 171 194 212 218 218 211 146 161 153 149 153 167 164 200 185 187 190 188 169 178 170 159 134 129 129 14 266 295 276 263 214 214 109 93 65 47 50 38 347 345 1 55 358 324 289 85 250 278 207 233 220 200 214 198 185 163 168 152 167
229 228 229 227 224 220 219 222 224 224 214 209 205 208 211 212 210 207 198 201 203 199 186 194 180 175 181 178 167 178 201 223 232 215 205 151 167 162 151 159 166 179 221 219 193 188 175 163 192 187 138 173 118 117 204 159 269 131 242 243 126 139 128 79 55 38 31 10 333 334 346 264 164 249 229 255 256 246 239 241 215 216 203 179 163 170 162 167
227 228 226 227 224 219 216 217 218 220 216 208 205 206 207 208 207 207 198 196 200 196 197 187 181 174 177 175 184 179 181 218 231 208 180 166 177 165 146 158 167 189 208 204 203 187 174 174 179 188 176 169 131 145 225 193 302 221 241 86 123 144 124 99 72 52 4 10 322 312 301 18 1 257 239 243 251 269 28 22 325 276 190 166 167 172 167 174
222 225 226 226 223 220 215 210 212 220 221 212 203 202 203 204 205 204 201 201 201 198 194 185 175 181 178 177 188 191 178 215 122 176 156 172 169 152 149 157 184 194 200 194 191 176 177 167 178 180 193 183 182 195 113 345 31 222 174 145 89 40 94 91 96 56 296 6 357 343 358 316 286 283 243 236 245 269 70 39 11 342 249 164 165 165 173 181
219 222 225 223 222 220 215 207 210 216 221 216 199 196 196 199 200 202 199 199 208 205 191 174 172 176 182 172 194 202 204 222 63 150 152 163 159 155 155 168 184 196 196 196 196 184 184 168 183 194 198 201 195 201 136 101 253 274 184 173 152 103 90 87 42 70 337 331 346 347 303 282 294 279 1 253 251 263 180 110 79 24 161 155 167 174 178 183
218 219 221 222 222 219 211 207 206 210 216 218 202 191 187 193 195 195 195 199 202 205 182 181 172 166 156 201 182 204 214 219 110 143 148 150 154 153 152 175 181 189 195 198 192 196 186 189 188 173 217 200 180 199 135 97 288 265 175 184 148 200 200 298 292 299 300 293 319 306 297 295 279 292 329 262 258 258 218 135 119 141 162 169 177 181 184 187
213 212 213 220 219 220 214 206 204 205 209 214 212 189 181 182 188 187 192 200 203 199 187 178 171 168 167 176 202 199 216 198 129 149 144 144 142 152 161 174 190 189 198 200 200 199 194 194 193 179 201 207 148 188 133 160 245 235 252 170 164 220 283 290 295 281 283 301 264 307 296 298 317 5 267 255 255 247 155 154 170 170 170 187 192 186 187 190
207 207 207 212 214 219 216 207 203 203 207 213 215 201 181 181 185 187 188 192 206 208 200 176 168 164 166 183 211 218 203 136 144 147 150 142 144 156 181 182 186 194 194 197 197 199 204 191 203 202 184 198 169 178 138 188 208 95 94 213 251 269 287 262 271 291 290 282 282 280 294 293 123 263 277 112 81 119 174 209 190 188 187 188 191 192 194 193
210 207 206 212 211 212 216 207 202 200 204 208 211 206 190 181 183 188 189 185 194 210 203 179 167 159 175 179 199 215 51 132 153 160 153 150 151 164 182 188 187 195 198 192 198 197 193 189 107 25 355 168 169 147 182 185 98 125 104 208 243 259 262 265 268 271 274 276 141 288 290 291 267 210 244 236 145 172 204 198 190 195 198 192 190 188 196 200
208 203 201 206 209 211 214 204 197 199 202 206 208 205 194 186 178 175 179 188 200 205 197 191 167 167 169 185 207 215 328 111 158 157 159 153 162 171 180 187 187 196 197 197 197 191 202 155 158 139 188 103 197 122 177 134 198 128 214 264 251 271 269 252 257 270 152 268 259 320 296 274 232 235 234 227 160 174 205 204 196 200 204 196 191 188 193 201
205 199 202 201 202 208 212 207 198 196 198 203 205 203 199 192 183 175 167 181 203 207 205 185 176 176 155 192 214 62 270 196 156 160 161 166 160 172 183 190 195 200 201 198 193 162 146 125 128 180 191 192 172 191 96 168 151 153 189 250 261 264 262 257 256 235 247 267 163 224 272 258 247 225 225 162 160 170 197 205 196 199 203 197 193 191 195 197
201 195 201 201 199 199 207 206 195 194 196 198 200 199 196 190 188 182 175 178 191 207 202 194 173 179 172 217 143 171 232 254 160 166 171 166 167 170 176 188 196 205 198 206 159 127 110 129 142 112 7 275 158 152 140 105 163 208 113 209 247 248 248 210 193 115 240 89 190 205 256 259 278 254 166 149 168 189 205 207 201 194 193 196 195 194 198 199
197 189 194 203 200 196 200 201 193 191 194 195 195 195 194 196 187 182 174 177 187 198 197 189 186 157 195 194 43 172 299 277 187 175 172 172 165 153 162 163 188 194 198 153 115 119 123 105 113 135 69 313 113 168 140 188 177 187 167 225 220 232 243 157 173 174 237 135 224 195 257 261 263 287 94 77 208 212 229 217 202 196 193 195 195 200 202 203
191 188 192 198 205 201 195 191 192 192 193 193 191 187 189 192 188 177 168 168 152 201 191 183 185 184 152 201 166 114 172 187 192 174 176 179 166 165 160 158 123 119 120 95 105 116 134 145 147 118 119 104 171 175 178 189 209 199 218 215 199 210 224 218 197 210 246 251 193 218 257 303 228 184 100 135 234 245 253 244 216 201 201 198 198 201 204 199
185 184 183 192 198 201 192 187 187 189 192 190 183 179 179 193 180 167 158 142 107 89 198 199 169 174 186 133 111 165 170 193 171 172 178 186 173 159 153 142 151 127 110 121 132 128 144 133 102 107 244 177 180 181 201 215 210 207 206 233 215 200 207 233 101 186 27 219 232 211 241 250 272 284 242 151 186 220 244 256 247 213 205 202 203 204 202 203
181 180 180 185 193 194 187 181 184 187 188 183 178 166 170 189 164 134 113 115 98 98 281 296 182 181 198 164 173 170 166 175 173 166 179 179 177 163 157 153 139 131 124 125 151 156 161 157 172 178 160 187 182 190 207 208 202 194 194 213 211 215 216 230 189 129 231 202 253 247 239 249 248 263 275 267 180 221 251 257 254 235 214 204 205 208 209 209
168 165 174 176 186 188 181 177 176 176 171 164 158 148 155 170 140 339 157 134 135 185 220 186 181 189 286 191 152 160 173 161 156 161 176 176 180 171 160 141 147 147 156 153 183 163 184 135 195 176 194 190 190 194 208 218 206 196 201 209 214 210 207 226 221 138 201 236 246 246 253 260 244 244 250 259 216 228 245 250 254 250 233 214 208 210 212 214
169 165 171 172 172 171 174 172 171 166 148 134 124 151 147 158 161 179 188 179 205 188 3 69 225 354 9 145 177 135 128 154 152 173 167 179 161 173 169 162 162 166 158 181 164 187 169 176 187 198 195 182 189 200 208 222 238 207 216 222 226 224 224 202 200 141 149 270 255 258 263 264 266 262 255 250 232 216 238 246 245 241 236 223 215 212 214 214
171 165 168 165 162 153 159 169 165 154 159 158 140 162 181 164 157 189 153 199 202 209 256 311 47 355 254 315 164 148 151 156 148 166 176 164 174 147 161 157 162 181 185 171 161 145 195 194 205 199 189 183 186 199 211 221 211 213 221 225 230 237 244 199 207 151 157 212 262 251 259 257 263 263 257 253 240 225 235 241 242 243 238 230 218 216 213 214
161 165 163 157 154 151 148 155 159 154 155 154 160 169 176 183 120 68 137 185 206 191 225 267 321 300 318 286 249 159 133 143 165 174 168 172 161 161 164 173 171 178 181 168 145 160 204 210 201 196 194 188 192 199 205 214 208 219 224 218 234 232 232 252 160 144 166 197 264 263 261 265 258 256 255 250 249 243 236 237 243 245 242 235 228 221 213 198
150 148 147 148 144 140 134 132 151 155 165 173 173 157 142 86 82 82 122 44 144 174 219 226 241 263 283 292 251 167 154 167 163 171 182 177 167 181 165 179 182 175 172 169 170 162 196 217 197 189 192 196 197 200 200 207 214 215 219 225 224 242 240 247 198 173 183 203 279 293 284 274 267 259 251 244 246 249 240 233 236 234 242 241 233 223 209 203
148 144 142 141 136 133 129 128 140 160 173 172 179 161 115 333 125 147 131 188 171 75 206 218 223 230 238 247 218 198 169 168 160 176 179 171 177 164 175 174 177 177 181 175 178 181 174 155 180 180 190 195 198 198 198 202 211 217 223 224 227 229 234 250 68 183 190 230 241 268 274 269 256 255 246 235 230 241 243 240 232 228 228 236 242 240 222 215
141 140 136 128 124 126 128 136 155 170 161 172 176 136 112 16 134 134 103 72 5 264 159 34 165 231 232 239 285 210 176 137 181 161 172 176 172 169 187 179 176 183 178 180 182 191 192 154 169 181 179 189 196 197 201 199 216 207 221 227 236 246 243 225 227 271 265 275 204 214 289 263 234 229 239 236 209 224 233 234 227 224 218 218 225 225 222 226
143 142 135 128 131 134 146 134 170 152 168 171 156 128 109 128 310 129 93 127 229 167 139 205 111 243 141 248 219 200 162 192 163 161 159 185 179 175 163 187 181 181 181 181 187 204 184 169 176 177 173 190 196 197 193 197 216 217 213 202 227 243 243 240 234 190 265 260 59 188 243 274 314 294 265 252 234 227 223 225 218 215 216 213 213 216 218 219
141 134 134 138 140 155 157 157 143 157 158 164 144 123 115 143 339 132 141 207 260 161 156 133 143 241 163 205 195 150 190 151 129 151 169 181 180 202 181 167 181 193 175 161 183 205 149 178 169 173 178 187 194 207 198 195 212 227 122 183 214 227 229 232 234 244 262 313 292 215 241 279 286 272 246 240 249 243 230 219 211 217 214 215 209 209 212 214
138 135 137 139 149 167 291 125 151 168 178 136 143 121 119 178 23 103 186 200 243 116 169 163 197 39 238 179 186 185 30 128 163 183 182 162 169 187 199 178 177 179 170 165 199 126 167 171 175 174 182 186 200 203 182 188 211 215 145 196 201 213 229 234 246 252 300 350 276 245 213 258 248 256 168 208 241 234 238 238 224 217 218 216 212 207 205 207
133 133 136 135 126 315 127 129 152 155 122 130 131 112 101 73 336 148 175 242 119 65 132 142 129 156 161 169 193 212 155 173 159 155 173 171 314 158 183 190 184 175 169 179 175 79 186 172 175 174 181 198 196 199 174 183 212 126 152 175 205 209 236 247 234 238 334 243 254 235 217 255 272 252 252 208 228 239 235 231 235 233 222 214 210 210 206 207
129 133 133 135 125 114 115 137 112 107 144 131 123 111 101 95 139 191 159 221 95 162 160 166 176 176 168 185 192 192 188 185 67 146 165 171 172 18 8 169 174 162 161 175 172 139 127 170 178 189 194 192 186 193 180 191 200 126 139 139 120 148 164 97 215 134 245 252 252 224 233 240 292 240 229 214 229 223 228 232 232 230 226 214 205 204 205 205
120 125 134 163 134 128 138 124 124 142 137 135 125 115 98 128 197 189 186 219 90 133 151 165 167 159 176 192 193 170 197 160 140 147 145 154 168 286 149 166 175 140 136 119 94 121 127 122 169 179 181 186 189 158 86 154 133 139 140 144 126 82 119 160 191 193 228 245 62 203 214 207 245 205 196 229 245 227 223 235 238 237 236 227 200 200 201 204
120 124 146 180 98 155 173 136 135 145 141 141 134 135 149 186 257 217 174 331 121 177 173 147 164 169 174 196 206 165 174 160 167 162 158 168 160 174 181 166 163 130 150 155 136 135 148 175 125 122 269 177 148 121 118 124 160 152 155 158 156 172 148 196 176 205 221 247 84 10 155 234 239 245 278 265 251 255 242 238 241 244 245 241 210 199 202 201
128 131 125 104 120 171 92 111 128 127 126 144 154 148 178 204 224 213 102 3 107 121 192 158 163 168 175 187 202 176 168 177 169 173 161 171 171 189 184 176 171 169 156 169 149 157 157 125 158 152 175 181 157 159 153 169 191 171 174 170 178 168 185 214 193 247 280 187 158 184 193 260 276 283 228 241 248 246 240 241 250 255 260 262 272 223 229 214
127 135 134 141 140 120 120 129 126 138 135 106 147 151 193 209 232 115 146 180 79 356 153 163 165 168 176 191 181 178 170 188 175 170 170 169 178 179 190 192 179 171 144 152 156 158 148 183 208 163 196 178 191 189 179 163 163 183 172 183 195 169 184 202 192 209 224 256 164 156 133 249 264 85 11 21 4 334 282 264 258 258 254 265 265 257 257 249
124 135 120 127 135 130 123 134 139 142 132 138 138 174 190 212 204 158 153 139 352 151 151 187 166 169 180 201 174 195 185 162 195 163 185 167 184 178 175 177 197 172 135 143 182 163 183 33 148 180 8 181 193 184 132 118 113 178 215 204 211 209 181 232 254 237 212 151 164 196 227 290 249 35 279 240 226 224 237 246 252 256 248 241 252 242 229 229
119 112 135 135 158 149 131 135 153 145 145 145 146 181 203 192 186 192 183 124 151 154 164 168 171 166 163 189 185 198 202 101 182 178 186 184 173 180 173 173 182 185 164 168 143 172 169 209 158 166 211 183 188 142 150 138 168 175 185 209 203 351 235 215 108 96 39 311 256 178 253 256 277 272 252 255 259 221 198 222 235 243 244 241 248 249 241 214
101 127 132 144 164 162 154 148 166 157 167 153 163 193 207 209 8 101 121 148 173 170 163 163 192 167 167 177 174 203 189 155 184 187 180 173 187 177 164 179 179 180 184 142 152 288 165 122 65 170 175 181 250 158 162 169 128 141 210 201 116 55 353 231 223 133 223 248 254 171 232 251 243 288 166 217 234 249 214 209 225 240 247 248 249 255 251 229
117 108 116 160 167 167 165 160 163 164 161 170 198 202 56 187 156 100 344 231 162 184 162 213 105 230 179 169 185 177 196 187 179 186 165 188 206 171 165 168 187 185 176 157 148 159 111 90 33 331 165 85 59 154 172 60 346 188 182 159 163 195 217 205 231 233 215 224 260 231 242 251 232 238 157 212 225 251 235 210 214 231 232 235 245 253 262 276
126 145 123 165 174 166 170 167 169 165 176 186 202 216 159 204 134 168 95 129 197 182 190 200 116 238 167 182 136 158 176 200 175 188 160 196 186 182 183 161 179 185 180 161 147 143 136 114 132 340 33 160 144 175 179 177 75 339 105 183 211 268 215 194 202 287 223 249 261 259 214 259 201 234 222 238 228 245 261 236 214 222 233 234 233 252 275 288
145 147 99 153 178 171 169 177 159 171 179 196 198 217 146 182 164 183 196 98 334 237 229 176 81 132 173 156 149 167 197 219 181 186 196 175 186 166 187 188 172 178 182 176 155 157 154 115 152 141 248 166 178 196 188 177 167 175 183 188 187 211 358 281 214 217 211 244 252 284 280 258 233 204 205 223 229 230 244 253 241 232 237 90 34 286 290 298
186 133 103 160 174 166 165 174 170 173 193 210 211 196 112 170 147 180 185 193 232 40 27 351 157 178 167 135 202 245 189 198 196 186 193 180 191 158 204 179 172 173 178 186 162 169 123 162 137 132 172 197 191 170 221 182 177 188 183 190 184 170 173 185 227 190 227 225 229 234 257 260 98 121 173 203 208 232 242 256 262 260 104 3 62 104 90 279
155 119 130 162 165 165 161 160 184 189 200 198 202 173 171 171 151 170 181 175 196 216 35 337 193 186 156 192 134 170 160 204 205 192 203 184 198 216 180 184 173 162 157 168 165 152 130 101 128 164 176 169 96 13 62 11 202 200 196 201 188 194 199 203 216 198 201 226 282 298 316 279 135 168 143 166 194 217 312 5 266 263 262 267 30 46 266 253
97 88 88 162 162 173 169 169 174 191 210 212 133 82 120 154 154 162 173 179 200 114 1 317 251 196 221 193 141 154 167 223 198 207 191 195 193 208 169 182 172 176 169 130 79 150 82 120 105 126 77 42 45 70 22 24 22 197 221 220 199 202 201 207 215 79 203 194 216 237 249 261 117 154 153 153 84 61 311 246 250 253 286 350 314 305 295 288
109 115 117 158 182 190 182 170 183 200 209 191 186 196 143 155 166 169 186 169 182 161 175 206 264 234 241 192 200 185 173 187 229 226 214 199 183 272 175 183 178 176 174 163 158 171 151 185 124 126 115 154 150 88 187 210 270 220 202 205 208 205 205 213 49 47 240 210 213 205 236 260 149 156 106 89 120 215 236 235 229 270 272 263 265 260 263 260
119 96 111 148 183 211 204 193 195 197 200 201 182 200 181 194 211 185 177 183 177 179 157 213 201 175 236 192 216 208 192 210 155 222 327 207 185 338 183 183 176 178 167 169 151 159 60 151 150 158 163 166 175 188 191 191 205 201 207 200 205 206 202 180 210 201 238 206 209 224 251 263 105 100 146 182 182 221 226 227 173 224 256 257 240 237 248 258
160 130 157 156 196 231 267 281 257 221 200 202 205 208 203 221 193 200 194 191 178 176 179 149 165 195 267 246 228 209 205 202 174 279 179 225 169 274 188 178 179 175 140 141 146 168 142 158 185 157 173 189 194 94 58 61 82 167 188 201 194 208 219 215 235 227 229 217 225 229 241 260 187 192 181 188 200 213 211 173 212 220 220 232 242 243 225 247
136 177 148 172 150 250 231 238 239 230 224 189 204 171 193 211 184 197 201 215 185 166 183 183 143 161 209 233 222 215 205 192 231 234 214 191 357 17 221 177 174 162 128 133 157 136 144 174 191 177 186 182 122 158 149 150 156 172 176 188 174 179 198 200 199 220 220 229 245 234 235 246 253 225 182 192 199 209 209 177 190 190 197 206 218 254 260 238
151 189 174 176 178 185 208 234 227 222 226 200 217 171 197 198 193 194 178 222 173 181 178 190 207 194 172 193 203 219 184 174 172 195 131 323 124 161 162 185 174 168 145 165 177 165 163 184 191 179 173 172 163 171 156 163 175 177 185 183 184 187 193 198 216 226 214 209 223 231 228 241 252 236 226 220 216 203 207 214 195 152 108 226 267 292 307 301
296 54 232 160 223 186 195 207 204 222 221 213 227 219 218 198 204 199 179 186 191 189 192 210 204 206 203 194 205 242 182 165 207 177 182 171 175 151 149 164 210 177 135 133 247 119 161 204 176 173 164 138 170 164 163 172 175 175 186 190 190 188 195 204 218 222 218 221 235 245 232 238 248 246 228 233 219 227 186 132 106 123 227 246 265 268 261 262
194 159 189 234 249 249 223 216 208 208 221 212 223 226 228 214 212 204 200 179 185 199 181 217 207 193 195 198 205 225 217 216 188 181 190 163 178 178 174 179 158 201 160 177 180 186 185 176 154 159 145 172 186 164 165 177 175 185 192 191 191 192 200 208 218 226 221 233 240 242 247 269 264 250 257 254 230 214 96 143 218 235 249 260 261 258 252 243
26 273 2 242 217 236 253 232 216 214 222 212 216 226 226 226 225 205 209 188 190 182 185 209 214 189 184 189 207 223 220 232 272 220 173 171 180 184 169 199 162 158 171 174 183 174 192 172 160 166 177 165 198 169 173 173 176 178 184 193 195 196 206 211 215 214 194 220 232 241 255 254 258 116 234 233 226 227 224 227 238 240 231 234 241 254 263 268
254 286 327 11 261 235 239 237 241 226 220 218 214 221 215 221 225 202 216 210 217 200 183 202 203 185 185 194 217 221 215 209 242 238 204 216 351 105 350 155 170 169 174 184 174 180 183 166 168 169 188 175 166 169 162 138 111 203 208 198 199 204 207 211 221 215 213 216 224 217 230 235 258 123 232 227 208 207 223 244 250 253 260 261 251 241 228 236